• In United States
  • List of Countries
  • For 7 days
  • Water Temperature
  • Satellite Maps
  • Weather Map
  • Weather Widgets
  • user-avatar
    Login

    Hourly Weather Ordino

    Today, 20 January, Saturday

    Time Temperature Precipitation Wind Pressure Humidity
    00:00 -4°C° 0 mm 3 mps 633 mmHg 76%
    01:00 -4°C° 0 mm 3 mps 633 mmHg 76%
    02:00 -3°C° 0 mm 2 mps 633 mmHg 77%
    03:00 -4°C° 0 mm 2 mps 633 mmHg 77%
    04:00 -4°C° 0 mm 2 mps 632 mmHg 76%
    05:00 -4°C° 0 mm 2 mps 632 mmHg 75%
    06:00 -4°C° 0 mm 2 mps 632 mmHg 74%
    07:00 -2°C° 0 mm 2 mps 632 mmHg 71%
    08:00 +1°C° 0 mm 1 mps 633 mmHg 69%
    09:00 +2°C° 0 mm 1 mps 633 mmHg 66%
    10:00 +2°C° 0.2 mm 2 mps 633 mmHg 67%
    11:00 +3°C° 0.2 mm 2 mps 633 mmHg 68%
    12:00 +4°C° 0.2 mm 2 mps 633 mmHg 69%
    13:00 +3°C° 0.5 mm 3 mps 632 mmHg 72%
    14:00 +4°C° 0.5 mm 3 mps 632 mmHg 75%
    15:00 +4°C° 0.5 mm 4 mps 632 mmHg 78%
    16:00 +4°C° 0.7 mm 4 mps 631 mmHg 81%
    17:00 +3°C° 0.7 mm 4 mps 631 mmHg 85%
    18:00 +1°C° 0.7 mm 4 mps 631 mmHg 88%
    19:00 +1°C° 0.5 mm 4 mps 631 mmHg 88%
    20:00 +1°C° 0.5 mm 4 mps 632 mmHg 89%
    21:00 +3°C° 0.5 mm 4 mps 632 mmHg 89%
    22:00 +3°C° 0.7 mm 4 mps 632 mmHg 90%
    23:00 +3°C° 0.7 mm 3 mps 633 mmHg 90%

    Tomorrow, 21 January, Sunday

    Time Temperature Precipitation Wind Pressure Humidity
    00:00 +3°C° 0.7 mm 3 mps 633 mmHg 91%
    01:00 +3°C° 0.7 mm 3 mps 633 mmHg 91%
    02:00 +3°C° 0.7 mm 3 mps 633 mmHg 91%
    03:00 +3°C° 0.7 mm 3 mps 634 mmHg 92%
    04:00 +3°C° 0.7 mm 3 mps 634 mmHg 92%
    05:00 +3°C° 0.7 mm 3 mps 634 mmHg 92%
    06:00 +3°C° 0.7 mm 3 mps 634 mmHg 92%
    07:00 +3°C° 0.6 mm 3 mps 635 mmHg 91%
    08:00 +3°C° 0.6 mm 3 mps 635 mmHg 90%
    09:00 +4°C° 0.6 mm 3 mps 635 mmHg 90%
    10:00 +4°C° 0.3 mm 3 mps 636 mmHg 87%
    11:00 +5°C° 0.3 mm 3 mps 636 mmHg 85%
    12:00 +5°C° 0.3 mm 3 mps 636 mmHg 82%
    13:00 +5°C° 0.2 mm 3 mps 636 mmHg 82%
    14:00 +5°C° 0.2 mm 3 mps 636 mmHg 82%
    15:00 +5°C° 0.2 mm 3 mps 636 mmHg 82%
    16:00 +5°C° 0.2 mm 3 mps 636 mmHg 84%
    17:00 +4°C° 0.2 mm 3 mps 637 mmHg 86%
    18:00 +4°C° 0.2 mm 3 mps 637 mmHg 88%
    19:00 +3°C° 0.2 mm 3 mps 637 mmHg 87%
    20:00 +3°C° 0.2 mm 3 mps 637 mmHg 87%
    21:00 +3°C° 0.2 mm 3 mps 637 mmHg 87%
    22:00 +3°C° 0 mm 3 mps 637 mmHg 86%
    23:00 +2°C° 0 mm 3 mps 637 mmHg 85%

    Day after tomorrow, 22 January, Monday

    Time Temperature Precipitation Wind Pressure Humidity
    00:00 +2°C° 0 mm 3 mps 637 mmHg 83%
    01:00 +2°C° 0 mm 3 mps 637 mmHg 83%
    02:00 +2°C° 0 mm 3 mps 637 mmHg 83%
    03:00 +1°C° 0 mm 3 mps 637 mmHg 83%
    04:00 +1°C° 0 mm 3 mps 637 mmHg 83%
    05:00 +1°C° 0 mm 3 mps 637 mmHg 83%
    06:00 +1°C° 0 mm 3 mps 636 mmHg 82%
    07:00 +2°C° 0 mm 3 mps 637 mmHg 80%
    08:00 +3°C° 0 mm 3 mps 637 mmHg 77%
    09:00 +4°C° 0 mm 2 mps 638 mmHg 75%
    10:00 +5°C° 0 mm 3 mps 638 mmHg 71%
    11:00 +7°C° 0 mm 3 mps 639 mmHg 67%
    12:00 +9°C° 0 mm 3 mps 639 mmHg 63%
    13:00 +8°C° 0 mm 3 mps 639 mmHg 64%
    14:00 +8°C° 0 mm 3 mps 639 mmHg 65%
    15:00 +8°C° 0 mm 3 mps 638 mmHg 67%
    16:00 +5°C° 0 mm 3 mps 638 mmHg 71%
    17:00 +3°C° 0 mm 3 mps 638 mmHg 75%
    18:00 +2°C° 0 mm 3 mps 637 mmHg 79%
    19:00 +2°C° 0 mm 3 mps 637 mmHg 77%
    20:00 +2°C° 0 mm 3 mps 638 mmHg 75%
    21:00 +2°C° 0 mm 3 mps 638 mmHg 73%
    22:00 +3°C° 0 mm 2 mps 638 mmHg 76%
    23:00 +3°C° 0 mm 2 mps 638 mmHg 79%

    23 January, Tuesday

    Time Temperature Precipitation Wind Pressure Humidity
    00:00 +3°C° 0 mm 2 mps 638 mmHg 82%
    01:00 +3°C° 0 mm 2 mps 638 mmHg 82%
    02:00 +2°C° 0 mm 3 mps 638 mmHg 83%
    03:00 +2°C° 0 mm 3 mps 638 mmHg 84%
    04:00 +2°C° 0 mm 3 mps 638 mmHg 84%
    05:00 +2°C° 0 mm 3 mps 638 mmHg 83%
    06:00 +1°C° 0 mm 3 mps 638 mmHg 83%
    07:00 +2°C° 0 mm 3 mps 638 mmHg 79%
    08:00 +4°C° 0 mm 2 mps 639 mmHg 76%
    09:00 +4°C° 0 mm 2 mps 640 mmHg 72%
    10:00 +6°C° 0 mm 2 mps 640 mmHg 68%
    11:00 +7°C° 0 mm 2 mps 640 mmHg 63%
    12:00 +9°C° 0 mm 2 mps 641 mmHg 59%
    13:00 +8°C° 0 mm 2 mps 641 mmHg 60%
    14:00 +8°C° 0 mm 2 mps 640 mmHg 61%
    15:00 +8°C° 0 mm 2 mps 640 mmHg 62%
    16:00 +6°C° 0 mm 2 mps 640 mmHg 68%
    17:00 +4°C° 0 mm 2 mps 639 mmHg 75%
    18:00 +4°C° 0 mm 1 mps 639 mmHg 82%
    19:00 +3°C° 0 mm 1 mps 639 mmHg 78%
    20:00 +3°C° 0 mm 1 mps 639 mmHg 74%
    21:00 +3°C° 0 mm 1 mps 639 mmHg 70%
    22:00 +3°C° 0 mm 1 mps 639 mmHg 66%
    23:00 +3°C° 0 mm 1 mps 639 mmHg 63%

    24 January, Wednesday

    Time Temperature Precipitation Wind Pressure Humidity
    00:00 +3°C° 0 mm 1 mps 639 mmHg 59%
    01:00 +2°C° 0 mm 1 mps 639 mmHg 60%
    02:00 +2°C° 0 mm 1 mps 638 mmHg 61%
    03:00 +2°C° 0 mm 1 mps 638 mmHg 62%
    04:00 +2°C° 0 mm 1 mps 638 mmHg 64%
    05:00 +2°C° 0 mm 1 mps 638 mmHg 66%
    06:00 +2°C° 0 mm 1 mps 638 mmHg 68%
    07:00 +3°C° 0 mm 1 mps 639 mmHg 66%
    08:00 +4°C° 0 mm 1 mps 639 mmHg 64%
    09:00 +5°C° 0 mm 1 mps 640 mmHg 63%
    10:00 +6°C° 0 mm 2 mps 640 mmHg 60%
    11:00 +7°C° 0 mm 2 mps 641 mmHg 57%
    12:00 +9°C° 0 mm 2 mps 641 mmHg 55%
    13:00 +9°C° 0 mm 2 mps 640 mmHg 57%
    14:00 +8°C° 0 mm 2 mps 640 mmHg 59%
    15:00 +8°C° 0 mm 2 mps 640 mmHg 61%
    16:00 +6°C° 0 mm 2 mps 639 mmHg 69%
    17:00 +5°C° 0 mm 1 mps 638 mmHg 76%
    18:00 +3°C° 0 mm 1 mps 638 mmHg 83%
    19:00 +3°C° 0 mm 1 mps 638 mmHg 82%
    20:00 +3°C° 0 mm 1 mps 638 mmHg 80%
    21:00 +3°C° 0 mm 1 mps 638 mmHg 79%
    22:00 +3°C° 0 mm 1 mps 638 mmHg 79%
    23:00 +3°C° 0 mm 1 mps 638 mmHg 79%

    25 January, Thursday

    Time Temperature Precipitation Wind Pressure Humidity
    00:00 +2°C° 0 mm 1 mps 638 mmHg 79%
    01:00 +2°C° 0 mm 1 mps 637 mmHg 79%
    02:00 +2°C° 0 mm 1 mps 637 mmHg 80%
    03:00 +2°C° 0 mm 1 mps 637 mmHg 81%
    04:00 +2°C° 0 mm 1 mps 637 mmHg 80%
    05:00 +2°C° 0 mm 1 mps 637 mmHg 80%
    06:00 +2°C° 0 mm 1 mps 637 mmHg 80%
    07:00 +3°C° 0 mm 1 mps 637 mmHg 77%
    08:00 +4°C° 0 mm 1 mps 637 mmHg 74%
    09:00 +5°C° 0 mm 1 mps 638 mmHg 71%
    10:00 +5°C° 0 mm 2 mps 638 mmHg 66%
    11:00 +6°C° 0 mm 2 mps 638 mmHg 61%
    12:00 +8°C° 0 mm 2 mps 639 mmHg 57%
    13:00 +7°C° 0 mm 2 mps 638 mmHg 59%
    14:00 +7°C° 0 mm 2 mps 638 mmHg 62%
    15:00 +6°C° 0 mm 2 mps 637 mmHg 65%
    16:00 +6°C° 0 mm 1 mps 637 mmHg 73%
    17:00 +4°C° 0 mm 1 mps 637 mmHg 82%
    18:00 +3°C° 0 mm 1 mps 636 mmHg 90%
    19:00 +3°C° 0.1 mm 1 mps 636 mmHg 91%
    20:00 +3°C° 0.1 mm 1 mps 637 mmHg 92%
    21:00 +1°C° 0.1 mm 2 mps 637 mmHg 93%
    22:00 +1°C° 0.4 mm 2 mps 637 mmHg 93%
    23:00 +1°C° 0.4 mm 2 mps 637 mmHg 93%
    Show more